Year,Month,Day,Hour,Minute,Value (Times are PST for temperature in C)
2015,06,19,07,18,14.10
2015,06,19,07,19,14.20
2015,06,19,07,20,14.20
2015,06,19,07,21,14.20
2015,06,19,07,22,14.20
2015,06,19,07,23,14.20
2015,06,19,07,24,14.20
2015,06,19,07,25,14.20
2015,06,19,07,26,14.20
2015,06,19,07,27,14.20
2015,06,19,07,28,14.20
2015,06,19,07,29,14.20
2015,06,19,07,30,14.20
2015,06,19,07,31,14.20
2015,06,19,07,32,14.30
2015,06,19,07,33,14.30
2015,06,19,07,34,14.30
2015,06,19,07,35,14.40
2015,06,19,07,36,14.40
2015,06,19,07,37,14.40
2015,06,19,07,38,14.40
2015,06,19,07,39,14.40
2015,06,19,07,40,14.50
2015,06,19,07,41,14.50
2015,06,19,07,42,14.60
2015,06,19,07,43,14.60
2015,06,19,07,44,14.60
2015,06,19,07,45,14.70
2015,06,19,07,46,14.70
2015,06,19,07,47,14.70
2015,06,19,07,48,14.70
2015,06,19,07,49,14.70
2015,06,19,07,50,14.80
2015,06,19,07,51,14.80
2015,06,19,07,52,14.80
2015,06,19,07,53,14.80
2015,06,19,07,54,14.80
2015,06,19,07,55,14.80
2015,06,19,07,56,14.80
2015,06,19,07,57,14.80
2015,06,19,07,58,14.80
2015,06,19,07,59,14.80
2015,06,19,08,00,14.80
2015,06,19,08,01,14.80
2015,06,19,08,02,14.90
2015,06,19,08,03,14.90
2015,06,19,08,04,14.90
2015,06,19,08,05,14.90
2015,06,19,08,06,14.90
2015,06,19,08,07,14.90
2015,06,19,08,08,14.90
2015,06,19,08,09,14.90
2015,06,19,08,10,14.90
2015,06,19,08,11,14.80
2015,06,19,08,12,14.80
2015,06,19,08,13,14.80
2015,06,19,08,14,14.80
2015,06,19,08,15,14.80
2015,06,19,08,16,14.80
2015,06,19,08,17,14.80
2015,06,19,08,18,14.90
2015,06,19,08,19,14.90
2015,06,19,08,20,14.90
2015,06,19,08,21,14.90
2015,06,19,08,22,14.90
2015,06,19,08,23,14.90
2015,06,19,08,24,14.90
2015,06,19,08,25,14.90
2015,06,19,08,26,14.90
2015,06,19,08,27,14.90
2015,06,19,08,28,14.90
2015,06,19,08,29,14.90
2015,06,19,08,30,14.90
2015,06,19,08,31,14.90
2015,06,19,08,32,14.90
2015,06,19,08,33,15.00
2015,06,19,08,34,15.00
2015,06,19,08,35,15.00
2015,06,19,08,36,15.10
2015,06,19,08,37,15.10
2015,06,19,08,38,15.20
2015,06,19,08,39,15.20
2015,06,19,08,40,15.20
2015,06,19,08,41,15.20
2015,06,19,08,42,15.20
2015,06,19,08,43,15.20
2015,06,19,08,44,15.30
2015,06,19,08,45,15.30
2015,06,19,08,46,15.30
2015,06,19,08,47,15.30
2015,06,19,08,48,15.30
2015,06,19,08,49,15.30
2015,06,19,08,50,15.30
2015,06,19,08,51,15.30
2015,06,19,08,52,15.30
2015,06,19,08,53,15.30
2015,06,19,08,54,15.30
2015,06,19,08,55,15.30
2015,06,19,08,56,15.30
2015,06,19,08,57,15.30
2015,06,19,08,58,15.30
2015,06,19,08,59,15.30
2015,06,19,09,00,15.30
2015,06,19,09,01,15.40
2015,06,19,09,02,15.30
2015,06,19,09,03,15.30
2015,06,19,09,04,15.30
2015,06,19,09,05,15.30
2015,06,19,09,06,15.40
2015,06,19,09,07,15.40
2015,06,19,09,08,15.40
2015,06,19,09,09,15.50
2015,06,19,09,10,15.50
2015,06,19,09,11,15.50
2015,06,19,09,12,15.50
2015,06,19,09,13,15.50
2015,06,19,09,14,15.60
2015,06,19,09,15,15.60
2015,06,19,09,16,15.60
2015,06,19,09,17,15.70
2015,06,19,09,18,15.70
2015,06,19,09,19,15.80
2015,06,19,09,20,15.80
2015,06,19,09,21,15.80
2015,06,19,09,22,15.90
2015,06,19,09,23,15.90
2015,06,19,09,24,15.90
2015,06,19,09,25,15.90
2015,06,19,09,26,15.90
2015,06,19,09,27,15.80
2015,06,19,09,28,15.80
2015,06,19,09,29,15.80
2015,06,19,09,30,15.80
2015,06,19,09,31,15.80
2015,06,19,09,32,15.80
2015,06,19,09,33,15.70
2015,06,19,09,34,15.60
2015,06,19,09,35,15.60
2015,06,19,09,36,15.60
2015,06,19,09,37,15.60
2015,06,19,09,38,15.60
2015,06,19,09,39,15.60
2015,06,19,09,40,15.60
2015,06,19,09,41,15.70
2015,06,19,09,42,15.70
2015,06,19,09,43,15.70
2015,06,19,09,44,15.70
2015,06,19,09,45,15.80
2015,06,19,09,46,15.80
2015,06,19,09,47,15.80
2015,06,19,09,48,15.80
2015,06,19,09,49,15.80
2015,06,19,09,50,15.90
2015,06,19,09,51,15.90
2015,06,19,09,52,15.90
2015,06,19,09,53,15.90
2015,06,19,09,54,15.90
2015,06,19,09,55,16.00
2015,06,19,09,56,16.10
2015,06,19,09,57,16.10
2015,06,19,09,58,16.10
2015,06,19,09,59,16.10
2015,06,19,10,00,16.10
2015,06,19,10,01,16.10
2015,06,19,10,02,16.10
2015,06,19,10,03,16.20
2015,06,19,10,04,16.20
2015,06,19,10,05,16.10
2015,06,19,10,06,16.10
2015,06,19,10,07,16.10
2015,06,19,10,08,16.10
2015,06,19,10,09,16.10
2015,06,19,10,10,16.10
2015,06,19,10,11,16.10
2015,06,19,10,12,16.10
2015,06,19,10,13,16.10
2015,06,19,10,14,16.10
2015,06,19,10,15,16.10
2015,06,19,10,16,16.20
2015,06,19,10,17,16.20
2015,06,19,10,18,16.20
2015,06,19,10,19,16.20
2015,06,19,10,20,16.30
2015,06,19,10,21,16.30
2015,06,19,10,22,16.30
2015,06,19,10,23,16.40
2015,06,19,10,24,16.40
2015,06,19,10,25,16.40
2015,06,19,10,26,16.50
2015,06,19,10,27,16.40
2015,06,19,10,28,16.40
2015,06,19,10,29,16.50
2015,06,19,10,30,16.60
2015,06,19,10,31,16.60
2015,06,19,10,32,16.60
2015,06,19,10,33,16.60
2015,06,19,10,34,16.60
2015,06,19,10,35,16.60
2015,06,19,10,36,16.60
2015,06,19,10,37,16.60
2015,06,19,10,38,16.60
2015,06,19,10,39,16.60
2015,06,19,10,40,16.60
2015,06,19,10,41,16.60
2015,06,19,10,42,16.60
2015,06,19,10,43,16.50
2015,06,19,10,44,16.40
2015,06,19,10,45,16.40
2015,06,19,10,46,16.40
2015,06,19,10,47,16.40
2015,06,19,10,48,16.40
2015,06,19,10,49,16.40
2015,06,19,10,50,16.40
2015,06,19,10,51,16.40
2015,06,19,10,52,16.40
2015,06,19,10,53,16.40
2015,06,19,10,54,16.40
2015,06,19,10,55,16.40
2015,06,19,10,56,16.40
2015,06,19,10,57,16.40
2015,06,19,10,58,16.40
2015,06,19,10,59,16.40
2015,06,19,11,00,16.50
2015,06,19,11,01,16.60
2015,06,19,11,02,16.60
2015,06,19,11,03,16.60
2015,06,19,11,04,16.70
2015,06,19,11,05,16.70
2015,06,19,11,06,16.70
2015,06,19,11,07,16.70
2015,06,19,11,08,16.70
2015,06,19,11,09,16.70
2015,06,19,11,10,16.70
2015,06,19,11,11,16.80
2015,06,19,11,12,16.80
2015,06,19,11,13,16.80
2015,06,19,11,14,16.80
2015,06,19,11,15,16.80
2015,06,19,11,16,16.80
2015,06,19,11,17,16.80
2015,06,19,11,18,16.70
2015,06,19,11,19,16.80
2015,06,19,11,20,16.80
2015,06,19,11,21,16.80
2015,06,19,11,22,16.90
2015,06,19,11,23,16.90
2015,06,19,11,24,16.90
2015,06,19,11,25,16.90
2015,06,19,11,26,16.80
2015,06,19,11,27,16.80
2015,06,19,11,28,16.70
2015,06,19,11,29,16.70
2015,06,19,11,30,16.70
2015,06,19,11,31,16.70
2015,06,19,11,32,16.70
2015,06,19,11,33,16.80
2015,06,19,11,34,16.80
2015,06,19,11,35,16.80
2015,06,19,11,36,16.90
2015,06,19,11,37,16.90
2015,06,19,11,38,17.00
2015,06,19,11,39,17.00
2015,06,19,11,40,17.10
2015,06,19,11,41,17.00
2015,06,19,11,42,17.00
2015,06,19,11,43,17.00
2015,06,19,11,44,17.00
2015,06,19,11,45,17.00
2015,06,19,11,46,17.00
2015,06,19,11,47,17.00
2015,06,19,11,48,17.00
2015,06,19,11,49,17.00
2015,06,19,11,50,17.00
2015,06,19,11,51,17.00
2015,06,19,11,52,17.00
2015,06,19,11,53,17.00
2015,06,19,11,54,17.00
2015,06,19,11,55,17.00
2015,06,19,11,56,17.00
2015,06,19,11,57,17.00
2015,06,19,11,58,17.00
2015,06,19,11,59,17.00
2015,06,19,12,00,17.00
2015,06,19,12,01,17.00
2015,06,19,12,02,17.10
2015,06,19,12,03,17.20
2015,06,19,12,04,17.30
2015,06,19,12,05,17.30
2015,06,19,12,06,17.30
2015,06,19,12,07,17.30
2015,06,19,12,08,17.30
2015,06,19,12,09,17.30
2015,06,19,12,10,17.30
2015,06,19,12,11,17.30
2015,06,19,12,12,17.30
2015,06,19,12,13,17.30
2015,06,19,12,14,17.40
2015,06,19,12,15,17.40
2015,06,19,12,16,17.40
2015,06,19,12,17,17.40
2015,06,19,12,18,17.40
2015,06,19,12,19,17.50
2015,06,19,12,20,17.50
2015,06,19,12,21,17.50
2015,06,19,12,22,17.60
2015,06,19,12,23,17.60
2015,06,19,12,24,17.60
2015,06,19,12,25,17.60
2015,06,19,12,26,17.70
2015,06,19,12,27,17.70
2015,06,19,12,28,17.80
2015,06,19,12,29,17.80
2015,06,19,12,30,17.80
2015,06,19,12,31,17.80
2015,06,19,12,32,17.80
2015,06,19,12,33,17.80
2015,06,19,12,34,17.80
2015,06,19,12,35,17.70
2015,06,19,12,36,17.80
2015,06,19,12,37,17.80
2015,06,19,12,38,17.90
2015,06,19,12,39,17.90
2015,06,19,12,40,17.90
2015,06,19,12,41,18.00
2015,06,19,12,42,18.10
2015,06,19,12,43,18.10
2015,06,19,12,44,18.20
2015,06,19,12,45,18.20
2015,06,19,12,46,18.20
2015,06,19,12,47,18.20
2015,06,19,12,48,18.20
2015,06,19,12,49,18.30
2015,06,19,12,50,18.30
2015,06,19,12,51,18.50
2015,06,19,12,52,18.50
2015,06,19,12,53,18.50
2015,06,19,12,54,18.60
2015,06,19,12,55,18.60
2015,06,19,12,56,18.70
2015,06,19,12,57,18.70
2015,06,19,12,58,18.70
2015,06,19,12,59,18.70
2015,06,19,13,00,18.70
2015,06,19,13,01,18.80
2015,06,19,13,02,18.70
2015,06,19,13,03,18.80
2015,06,19,13,04,18.80
2015,06,19,13,05,18.90
2015,06,19,13,06,18.90
2015,06,19,13,07,18.90
2015,06,19,13,08,19.00
2015,06,19,13,09,19.10
2015,06,19,13,10,19.10
2015,06,19,13,11,19.10
2015,06,19,13,12,19.10
2015,06,19,13,13,19.20
2015,06,19,13,14,19.20
2015,06,19,13,15,19.30
2015,06,19,13,16,19.30
2015,06,19,13,17,19.30
2015,06,19,13,18,19.30
2015,06,19,13,19,19.30
2015,06,19,13,20,19.30
2015,06,19,13,21,19.30
2015,06,19,13,22,19.30
2015,06,19,13,23,19.40
2015,06,19,13,24,19.50
2015,06,19,13,25,19.60
2015,06,19,13,26,19.60
2015,06,19,13,27,19.70
2015,06,19,13,28,19.70
2015,06,19,13,29,19.70
2015,06,19,13,30,19.70
2015,06,19,13,31,19.80
2015,06,19,13,32,19.80
2015,06,19,13,33,19.90
2015,06,19,13,34,19.90
2015,06,19,13,35,20.10
2015,06,19,13,36,20.10
2015,06,19,13,37,20.20
2015,06,19,13,38,20.20
2015,06,19,13,39,20.20
2015,06,19,13,40,20.20
2015,06,19,13,41,20.20
2015,06,19,13,42,20.20
2015,06,19,13,43,20.10
2015,06,19,13,44,20.10
2015,06,19,13,45,20.10
2015,06,19,13,46,19.90
2015,06,19,13,47,19.90
2015,06,19,13,48,19.90
2015,06,19,13,49,20.00
2015,06,19,13,50,20.10
2015,06,19,13,51,20.10
2015,06,19,13,52,20.10
2015,06,19,13,53,20.10
2015,06,19,13,54,20.10
2015,06,19,13,55,20.20
2015,06,19,13,56,20.20
2015,06,19,13,57,20.20
2015,06,19,13,58,20.10
2015,06,19,13,59,20.10
2015,06,19,14,00,20.20
2015,06,19,14,01,20.20
2015,06,19,14,02,20.20
2015,06,19,14,03,20.20
2015,06,19,14,04,20.20
2015,06,19,14,05,20.10
2015,06,19,14,06,20.00
2015,06,19,14,07,19.90
2015,06,19,14,08,19.90
2015,06,19,14,09,19.90
2015,06,19,14,10,19.90
2015,06,19,14,11,19.90
2015,06,19,14,12,19.90
2015,06,19,14,13,19.90
2015,06,19,14,14,19.90
2015,06,19,14,15,20.00
2015,06,19,14,16,20.10
2015,06,19,14,17,20.10
2015,06,19,14,18,20.10
2015,06,19,14,19,20.10
2015,06,19,14,20,20.20
2015,06,19,14,21,20.20
2015,06,19,14,22,20.30
2015,06,19,14,23,20.40
2015,06,19,14,24,20.50
2015,06,19,14,25,20.60
2015,06,19,14,26,20.70
2015,06,19,14,27,20.80
2015,06,19,14,28,20.80
2015,06,19,14,29,20.80
2015,06,19,14,30,20.70
2015,06,19,14,31,20.70
2015,06,19,14,32,20.80
2015,06,19,14,33,20.70
2015,06,19,14,34,20.80
2015,06,19,14,35,20.70
2015,06,19,14,36,20.70
2015,06,19,14,37,20.60
2015,06,19,14,38,20.60
2015,06,19,14,39,20.60
2015,06,19,14,40,20.50
2015,06,19,14,41,20.60
2015,06,19,14,42,20.60
2015,06,19,14,43,20.60
2015,06,19,14,44,20.70
2015,06,19,14,45,20.80
2015,06,19,14,46,20.80
2015,06,19,14,47,20.70
2015,06,19,14,48,20.70
2015,06,19,14,49,20.60
2015,06,19,14,50,20.60
2015,06,19,14,51,20.50
2015,06,19,14,52,20.50
2015,06,19,14,53,20.40
2015,06,19,14,54,20.40
2015,06,19,14,55,20.40
2015,06,19,14,56,20.40
2015,06,19,14,57,20.30
2015,06,19,14,58,20.30
2015,06,19,14,59,20.30
2015,06,19,15,00,20.30
2015,06,19,15,01,20.30
2015,06,19,15,02,20.30
2015,06,19,15,03,20.30
2015,06,19,15,04,20.30
2015,06,19,15,05,20.30
2015,06,19,15,06,20.30
2015,06,19,15,07,20.40
2015,06,19,15,08,20.40
2015,06,19,15,09,20.40
2015,06,19,15,10,20.40
2015,06,19,15,11,20.50
2015,06,19,15,12,20.50
2015,06,19,15,13,20.60
2015,06,19,15,14,20.70
2015,06,19,15,15,20.80
2015,06,19,15,16,20.90
2015,06,19,15,17,20.90
2015,06,19,15,18,21.00
2015,06,19,15,19,21.00
2015,06,19,15,20,21.10
2015,06,19,15,21,21.10
2015,06,19,15,22,21.20
2015,06,19,15,23,21.20
2015,06,19,15,24,21.10
2015,06,19,15,25,21.10
2015,06,19,15,26,21.10
2015,06,19,15,27,21.00
2015,06,19,15,28,21.00
2015,06,19,15,29,21.10
2015,06,19,15,30,21.10
2015,06,19,15,31,21.20
2015,06,19,15,32,21.20
2015,06,19,15,33,21.20
2015,06,19,15,34,21.20
2015,06,19,15,35,21.20
2015,06,19,15,36,21.20
2015,06,19,15,37,21.30
2015,06,19,15,38,21.30
2015,06,19,15,39,21.30
2015,06,19,15,40,21.30
2015,06,19,15,41,21.30
2015,06,19,15,42,21.30
2015,06,19,15,43,21.30
2015,06,19,15,44,21.30
2015,06,19,15,45,21.30
2015,06,19,15,46,21.30
2015,06,19,15,47,21.30
2015,06,19,15,48,21.30
2015,06,19,15,49,21.30
2015,06,19,15,50,21.30
2015,06,19,15,51,21.30
2015,06,19,15,52,21.30
2015,06,19,15,53,21.30
2015,06,19,15,54,21.20
2015,06,19,15,55,21.10
2015,06,19,15,56,21.10
2015,06,19,15,57,21.00
2015,06,19,15,58,20.90
2015,06,19,15,59,20.90
2015,06,19,16,00,20.90
2015,06,19,16,01,20.90
2015,06,19,16,02,20.90
2015,06,19,16,03,20.90
2015,06,19,16,04,20.90
2015,06,19,16,05,21.00
2015,06,19,16,06,21.00
2015,06,19,16,07,21.00
2015,06,19,16,08,21.00
2015,06,19,16,09,21.00
2015,06,19,16,10,21.00
2015,06,19,16,11,21.00
2015,06,19,16,12,21.00
2015,06,19,16,13,20.90
2015,06,19,16,14,20.90
2015,06,19,16,15,20.80
2015,06,19,16,16,20.80
2015,06,19,16,17,20.80
2015,06,19,16,18,20.80
2015,06,19,16,19,20.70
2015,06,19,16,20,20.70
2015,06,19,16,21,20.70
2015,06,19,16,22,20.70
2015,06,19,16,23,20.70
2015,06,19,16,24,20.70
2015,06,19,16,25,20.60
2015,06,19,16,26,20.50
2015,06,19,16,27,20.50
2015,06,19,16,28,20.50
2015,06,19,16,29,20.50
2015,06,19,16,30,20.40
2015,06,19,16,31,20.40
2015,06,19,16,32,20.40
2015,06,19,16,33,20.40
2015,06,19,16,34,20.50
2015,06,19,16,35,20.50
2015,06,19,16,36,20.50
2015,06,19,16,37,20.50
2015,06,19,16,38,20.40
2015,06,19,16,39,20.40
2015,06,19,16,40,20.40
2015,06,19,16,41,20.30
2015,06,19,16,42,20.30
2015,06,19,16,43,20.30
2015,06,19,16,44,20.30
2015,06,19,16,45,20.30
2015,06,19,16,46,20.30
2015,06,19,16,47,20.30
2015,06,19,16,48,20.20
2015,06,19,16,49,20.20
2015,06,19,16,50,20.20
2015,06,19,16,51,20.20
2015,06,19,16,52,20.20
2015,06,19,16,53,20.20
2015,06,19,16,54,20.20
2015,06,19,16,55,20.20
2015,06,19,16,56,20.30
2015,06,19,16,57,20.30
2015,06,19,16,58,20.30
2015,06,19,16,59,20.40
2015,06,19,17,00,20.40
2015,06,19,17,01,20.40
2015,06,19,17,02,20.40
2015,06,19,17,03,20.30
2015,06,19,17,04,20.40
2015,06,19,17,05,20.30
2015,06,19,17,06,20.30
2015,06,19,17,07,20.30
2015,06,19,17,08,20.30
2015,06,19,17,09,20.30
2015,06,19,17,10,20.30
2015,06,19,17,11,20.30
2015,06,19,17,12,20.30
2015,06,19,17,13,20.30
2015,06,19,17,14,20.30
2015,06,19,17,15,20.30
2015,06,19,17,16,20.30
2015,06,19,17,17,20.30
2015,06,19,17,18,20.30
2015,06,19,17,19,20.40
2015,06,19,17,20,20.50
2015,06,19,17,21,20.50
2015,06,19,17,22,20.50
2015,06,19,17,23,20.60
2015,06,19,17,24,20.60
2015,06,19,17,25,20.70
2015,06,19,17,26,20.70
2015,06,19,17,27,20.70
2015,06,19,17,28,20.60
2015,06,19,17,29,20.60
2015,06,19,17,30,20.60
2015,06,19,17,31,20.60
2015,06,19,17,32,20.60
2015,06,19,17,33,20.60
2015,06,19,17,34,20.60
2015,06,19,17,35,20.70
2015,06,19,17,36,20.70
2015,06,19,17,37,20.70
2015,06,19,17,38,20.60
2015,06,19,17,39,20.60
2015,06,19,17,40,20.60
2015,06,19,17,41,20.60
2015,06,19,17,42,20.50
2015,06,19,17,43,20.40
2015,06,19,17,44,20.40
2015,06,19,17,45,20.30
2015,06,19,17,46,20.30
2015,06,19,17,47,20.30
2015,06,19,17,48,20.40
2015,06,19,17,49,20.40
2015,06,19,17,50,20.40
2015,06,19,17,51,20.40
2015,06,19,17,52,20.40
2015,06,19,17,53,20.40
2015,06,19,17,54,20.40
2015,06,19,17,55,20.40
2015,06,19,17,56,20.40
2015,06,19,17,57,20.40
2015,06,19,17,58,20.40
2015,06,19,17,59,20.40
2015,06,19,18,00,20.30
2015,06,19,18,01,20.30
2015,06,19,18,02,20.30
2015,06,19,18,03,20.30
2015,06,19,18,04,20.30
2015,06,19,18,05,20.30
2015,06,19,18,06,20.40
2015,06,19,18,07,20.40
2015,06,19,18,08,20.40
2015,06,19,18,09,20.40
2015,06,19,18,10,20.40
2015,06,19,18,11,20.40
2015,06,19,18,12,20.40
2015,06,19,18,13,20.40
2015,06,19,18,14,20.40
2015,06,19,18,15,20.40
2015,06,19,18,16,20.50
2015,06,19,18,17,20.50
2015,06,19,18,18,20.50
2015,06,19,18,19,20.50
2015,06,19,18,20,20.50
2015,06,19,18,21,20.40
2015,06,19,18,22,20.40
2015,06,19,18,23,20.40
2015,06,19,18,24,20.40
2015,06,19,18,25,20.30
2015,06,19,18,26,20.30
2015,06,19,18,27,20.30
2015,06,19,18,28,20.20
2015,06,19,18,29,20.20
2015,06,19,18,30,20.20
2015,06,19,18,31,20.20
2015,06,19,18,32,20.20
2015,06,19,18,33,20.20
2015,06,19,18,34,20.20
2015,06,19,18,35,20.20
2015,06,19,18,36,20.10
2015,06,19,18,37,20.10
2015,06,19,18,38,20.00
2015,06,19,18,39,19.90
2015,06,19,18,40,19.90
2015,06,19,18,41,19.90
2015,06,19,18,42,19.90
2015,06,19,18,43,19.90
2015,06,19,18,44,19.90
2015,06,19,18,45,19.90
2015,06,19,18,46,19.90
2015,06,19,18,47,19.90
2015,06,19,18,48,19.90
2015,06,19,18,49,19.90
2015,06,19,18,50,19.90
2015,06,19,18,51,19.90
2015,06,19,18,52,19.80
2015,06,19,18,53,19.80
2015,06,19,18,54,19.80
2015,06,19,18,55,19.80
2015,06,19,18,56,19.80
2015,06,19,18,57,19.80
2015,06,19,18,58,19.70
2015,06,19,18,59,19.70
2015,06,19,19,00,19.70
2015,06,19,19,01,19.60
2015,06,19,19,02,19.60
2015,06,19,19,03,19.50
2015,06,19,19,04,19.50
2015,06,19,19,05,19.50
2015,06,19,19,06,19.50
2015,06,19,19,07,19.50
2015,06,19,19,08,19.40
2015,06,19,19,09,19.40
2015,06,19,19,10,19.30
2015,06,19,19,11,19.20
2015,06,19,19,12,19.20
2015,06,19,19,13,19.10
2015,06,19,19,14,19.10
2015,06,19,19,15,19.10
2015,06,19,19,16,19.10
2015,06,19,19,17,19.10
2015,06,19,19,18,19.00
2015,06,19,19,19,18.90
2015,06,19,19,20,18.90
2015,06,19,19,21,18.90
2015,06,19,19,22,18.90
2015,06,19,19,23,18.90
2015,06,19,19,24,18.80
2015,06,19,19,25,18.80
2015,06,19,19,26,18.80
2015,06,19,19,27,18.70
2015,06,19,19,28,18.70
2015,06,19,19,29,18.60
2015,06,19,19,30,18.60
2015,06,19,19,31,18.60
2015,06,19,19,32,18.60
2015,06,19,19,33,18.60
2015,06,19,19,34,18.50
2015,06,19,19,35,18.50
2015,06,19,19,36,18.50
2015,06,19,19,37,18.50
2015,06,19,19,38,18.40
2015,06,19,19,39,18.40
2015,06,19,19,40,18.40
2015,06,19,19,41,18.40
2015,06,19,19,42,18.40
2015,06,19,19,43,18.40
2015,06,19,19,44,18.40
2015,06,19,19,45,18.40
2015,06,19,19,46,18.40
2015,06,19,19,47,18.40
2015,06,19,19,48,18.40
2015,06,19,19,49,18.40
2015,06,19,19,50,18.30
2015,06,19,19,51,18.30
2015,06,19,19,52,18.20
2015,06,19,19,53,18.20
2015,06,19,19,54,18.20
2015,06,19,19,55,18.20
2015,06,19,19,56,18.20
2015,06,19,19,57,18.10
2015,06,19,19,58,18.10
2015,06,19,19,59,18.10
2015,06,19,20,00,17.90
2015,06,19,20,01,17.90
2015,06,19,20,02,17.90
2015,06,19,20,03,17.90
2015,06,19,20,04,17.80
2015,06,19,20,05,17.70
2015,06,19,20,06,17.70
2015,06,19,20,07,17.60
2015,06,19,20,08,17.60
2015,06,19,20,09,17.50
2015,06,19,20,10,17.50
2015,06,19,20,11,17.50
2015,06,19,20,12,17.40
2015,06,19,20,13,17.40
2015,06,19,20,14,17.40
2015,06,19,20,15,17.30
2015,06,19,20,16,17.30
2015,06,19,20,17,17.30
2015,06,19,20,18,17.30
2015,06,19,20,19,17.30
2015,06,19,20,20,17.30
2015,06,19,20,21,17.30
2015,06,19,20,22,17.30
2015,06,19,20,23,17.30
2015,06,19,20,24,17.30
2015,06,19,20,25,17.30
2015,06,19,20,26,17.30
2015,06,19,20,27,17.30
2015,06,19,20,28,17.30
2015,06,19,20,29,17.30
2015,06,19,20,30,17.30
2015,06,19,20,31,17.30
2015,06,19,20,32,17.30
2015,06,19,20,33,17.30
2015,06,19,20,34,17.20
2015,06,19,20,35,17.20
2015,06,19,20,36,17.20
2015,06,19,20,37,17.10
2015,06,19,20,38,17.10
2015,06,19,20,39,17.10
2015,06,19,20,40,17.10
2015,06,19,20,41,17.00
2015,06,19,20,42,17.00
2015,06,19,20,43,17.00
2015,06,19,20,44,16.90
2015,06,19,20,45,16.90
2015,06,19,20,46,16.90
2015,06,19,20,47,16.90
2015,06,19,20,48,16.80
2015,06,19,20,49,16.80
2015,06,19,20,50,16.80
2015,06,19,20,51,16.70
2015,06,19,20,52,16.70
2015,06,19,20,53,16.70
2015,06,19,20,54,16.60
2015,06,19,20,55,16.60
2015,06,19,20,56,16.50
2015,06,19,20,57,16.40
2015,06,19,20,58,16.40
2015,06,19,20,59,16.40
2015,06,19,21,00,16.40
2015,06,19,21,01,16.40
2015,06,19,21,02,16.40
2015,06,19,21,03,16.40
2015,06,19,21,04,16.40
2015,06,19,21,05,16.40
2015,06,19,21,06,16.40
2015,06,19,21,07,16.40
2015,06,19,21,08,16.40
